Weather History for Sheridan, WY

Change the Weather History Date:

Tuesday, June 25, 2013

  Actual Average Record
Temperature  
Mean Temperature 69 °F 65 °F  
Max Temperature 82 °F 81 °F 100 °F (2012)
Min Temperature 55 °F 49 °F 36 °F (1966)
Degree Days  
Heating Degree Days 0 3  
Month to date heating degree days 120 136  
Since 1 June heating degree days 120 136  
Since 1 July heating degree days 7551 7630  
Cooling Degree Days 4 3  
Month to date cooling degree days 18 32  
Year to date cooling degree days 26 36  
Since 1 June cooling degree days 18 32  
Growing Degree Days 20 (Base 50)    
Moisture  
Dew Point 50 °F    
Average Humidity 56    
Maximum Humidity 78    
Minimum Humidity 33    
Precipitation  
Precipitation 0.00 in 0.05 in 1.58 in (1932)
Month to date precipitation 2.19 1.87  
Year to date precipitation 9.51 7.90  
Sea Level Pressure  
Sea Level Pressure 29.71 in    
Wind  
Wind Speed 6 mph (WNW)    
Max Wind Speed 32 mph    
Max Gust Speed 43 mph    
Visibility 10 miles    
Events      
T = Trace of Precipitation, MM = Missing Value Source: NWS Daily Summary

Daily Weather History Graph

Daily Weather History Graph

Search for Another Location

Airport:

Trip Planner

Search our weather history database for the weather conditions in past years. The results will help you decide how hot, cold, wet, or windy it might be!

Date:

Astronomy

Jun. 25, 2013 Rise Set
Actual Time 5:23 AM MDT 8:57 PM MDT
Civil Twilight 4:46 AM MDT 9:34 PM MDT
Nautical Twilight 3:57 AM MDT 10:24 PM MDT
Astronomical Twilight 2:52 AM MDT 11:28 PM MDT
Moon 10:36 PM MDT (6/25) 8:14 AM MDT (6/25)
Length of Visible Light 16h 48m
Length of Day
15h 34m
Waning Gibbous, 92% of the Moon is Illuminated
Jun 25
Waning Gibbous
Jun 29
Last Quarter
Jul 8
New
Jul 15
First Quarter
Jul 22
Full

Hourly Weather History & Observations

Time (MDT) Temp. Dew Point Humidity Pressure Visibility Wind Dir Wind Speed Gust Speed Precip Events Conditions
12:53 AM 73.0 °F 43.0 °F 34% 29.48 in 10.0 mi South 13.8 mph 23.0 mph N/A   Clear
1:38 AM 69.8 °F 44.6 °F 40% 29.64 in 10.0 mi NW 21.9 mph 31.1 mph N/A   Clear
1:53 AM 71.1 °F 44.1 °F 38% 29.50 in 10.0 mi NW 31.1 mph 38.0 mph N/A   Clear
2:53 AM 66.9 °F 45.0 °F 45% 29.57 in 10.0 mi NW 10.4 mph - N/A   Clear
3:53 AM 64.0 °F 46.0 °F 52% 29.62 in 10.0 mi North 3.5 mph - N/A   Scattered Clouds
4:53 AM 64.0 °F 46.9 °F 54% 29.65 in 10.0 mi West 10.4 mph - N/A   Partly Cloudy
5:53 AM 61.0 °F 48.0 °F 62% 29.68 in 10.0 mi West 6.9 mph - N/A   Mostly Cloudy
6:53 AM 63.0 °F 51.1 °F 65% 29.72 in 10.0 mi WNW 11.5 mph - N/A   Overcast
7:53 AM 64.9 °F 52.0 °F 63% 29.74 in 10.0 mi Calm Calm - N/A   Mostly Cloudy
8:53 AM 64.9 °F 52.0 °F 63% 29.74 in 10.0 mi NW 3.5 mph - N/A   Scattered Clouds
9:53 AM 70.0 °F 52.0 °F 53% 29.75 in 10.0 mi Variable 4.6 mph - N/A   Partly Cloudy
10:53 AM 75.0 °F 51.1 °F 43% 29.74 in 10.0 mi Variable 5.8 mph - N/A   Scattered Clouds
11:53 AM 72.0 °F 50.0 °F 46% 29.76 in 10.0 mi West 4.6 mph - N/A   Scattered Clouds
12:53 PM 75.0 °F 51.1 °F 43% 29.75 in 10.0 mi Variable 4.6 mph - N/A   Clear
1:53 PM 77.0 °F 51.1 °F 40% 29.74 in 10.0 mi SSE 8.1 mph - N/A   Partly Cloudy
2:53 PM 78.1 °F 50.0 °F 37% 29.75 in 10.0 mi Variable 5.8 mph - N/A   Partly Cloudy
3:53 PM 81.0 °F 51.1 °F 35% 29.73 in 10.0 mi Calm Calm - N/A   Partly Cloudy
4:53 PM 80.1 °F 50.0 °F 35% 29.73 in 10.0 mi East 4.6 mph - N/A   Partly Cloudy
5:53 PM 81.0 °F 50.0 °F 34% 29.74 in 10.0 mi North 6.9 mph - N/A   Clear
6:53 PM 81.0 °F 48.0 °F 31% 29.74 in 10.0 mi Calm Calm - N/A   Clear
7:53 PM 78.1 °F 52.0 °F 40% 29.75 in 10.0 mi Calm Calm - N/A   Clear
8:53 PM 66.9 °F 54.0 °F 63% 29.78 in 10.0 mi Calm Calm - N/A   Clear
9:53 PM 60.1 °F 53.1 °F 78% 29.80 in 10.0 mi Calm Calm - N/A   Clear
10:53 PM 60.1 °F 52.0 °F 75% 29.80 in 10.0 mi South 3.5 mph - N/A   Clear
11:53 PM 61.0 °F 52.0 °F 72% 29.82 in 10.0 mi WNW 3.5 mph - N/A   Partly Cloudy